Previsão horária em Aarschot

Hoje, 23 Janeiro, Sábado

Tempo Temperatura Precipitação Vento Pressão Humidade
00:00 +2°C° 0 mm 2 m/s 743 mmHg 89%
01:00 +1°C° 0 mm 2 m/s 743 mmHg 90%
02:00 +1°C° 0 mm 2 m/s 742 mmHg 91%
03:00 0°C° 0 mm 3 m/s 742 mmHg 92%
04:00 0°C° 0 mm 3 m/s 742 mmHg 91%
05:00 0°C° 0 mm 4 m/s 742 mmHg 91%
06:00 0°C° 0 mm 4 m/s 741 mmHg 91%
07:00 +1°C° 0.2 mm 4 m/s 741 mmHg 89%
08:00 +1°C° 0.2 mm 5 m/s 741 mmHg 87%
09:00 +1°C° 0.2 mm 5 m/s 741 mmHg 86%
10:00 +2°C° 0 mm 5 m/s 741 mmHg 83%
11:00 +2°C° 0 mm 5 m/s 741 mmHg 81%
12:00 +2°C° 0 mm 5 m/s 742 mmHg 79%
13:00 +2°C° 0 mm 6 m/s 742 mmHg 80%
14:00 +2°C° 0 mm 6 m/s 742 mmHg 81%
15:00 +2°C° 0 mm 6 m/s 742 mmHg 82%
16:00 +1°C° 0 mm 5 m/s 742 mmHg 83%
17:00 +1°C° 0 mm 4 m/s 742 mmHg 83%
18:00 +1°C° 0 mm 3 m/s 743 mmHg 83%
19:00 +1°C° 0 mm 3 m/s 743 mmHg 85%
20:00 +1°C° 0 mm 3 m/s 743 mmHg 86%
21:00 +2°C° 0 mm 2 m/s 743 mmHg 88%
22:00 +1°C° 0 mm 2 m/s 744 mmHg 88%
23:00 0°C° 0 mm 3 m/s 744 mmHg 89%

Amanhã, 24 Janeiro, Domingo

Tempo Temperatura Precipitação Vento Pressão Humidade
00:00 0°C° 0 mm 3 m/s 744 mmHg 89%
01:00 0°C° 0 mm 3 m/s 744 mmHg 90%
02:00 +1°C° 0 mm 2 m/s 744 mmHg 91%
03:00 -1°C° 0 mm 2 m/s 745 mmHg 92%
04:00 -1°C° 0 mm 2 m/s 745 mmHg 92%
05:00 -1°C° 0 mm 2 m/s 745 mmHg 92%
06:00 -1°C° 0 mm 2 m/s 746 mmHg 92%
07:00 -1°C° 0 mm 3 m/s 746 mmHg 90%
08:00 -1°C° 0 mm 3 m/s 746 mmHg 88%
09:00 -1°C° 0 mm 3 m/s 746 mmHg 86%
10:00 +1°C° 0 mm 2 m/s 746 mmHg 80%
11:00 +3°C° 0 mm 2 m/s 746 mmHg 75%
12:00 +4°C° 0 mm 2 m/s 746 mmHg 69%
13:00 +3°C° 0.1 mm 2 m/s 745 mmHg 71%
14:00 +4°C° 0.1 mm 1 m/s 745 mmHg 72%
15:00 +4°C° 0.1 mm 1 m/s 745 mmHg 74%
16:00 +3°C° 0 mm 1 m/s 745 mmHg 77%
17:00 +2°C° 0 mm 1 m/s 745 mmHg 80%
18:00 +2°C° 0 mm 1 m/s 746 mmHg 83%
19:00 +1°C° 0 mm 1 m/s 746 mmHg 85%
20:00 +1°C° 0 mm 1 m/s 746 mmHg 86%
21:00 +1°C° 0 mm 1 m/s 747 mmHg 87%
22:00 0°C° 0 mm 1 m/s 747 mmHg 88%
23:00 0°C° 0 mm 1 m/s 748 mmHg 89%

Depois de amanhã, 25 Janeiro, Segunda-feira

Tempo Temperatura Precipitação Vento Pressão Humidade
00:00 0°C° 0 mm 1 m/s 749 mmHg 89%
01:00 0°C° 0 mm 1 m/s 749 mmHg 89%
02:00 -2°C° 0 mm 2 m/s 749 mmHg 90%
03:00 -2°C° 0 mm 2 m/s 750 mmHg 90%
04:00 -2°C° 0 mm 2 m/s 750 mmHg 89%
05:00 -2°C° 0 mm 2 m/s 750 mmHg 88%
06:00 -2°C° 0 mm 3 m/s 750 mmHg 87%
07:00 -2°C° 0.2 mm 4 m/s 750 mmHg 89%
08:00 -2°C° 0.2 mm 4 m/s 750 mmHg 91%
09:00 -2°C° 0.2 mm 5 m/s 750 mmHg 93%
10:00 -1°C° 0.2 mm 5 m/s 751 mmHg 93%
11:00 -1°C° 0.2 mm 4 m/s 751 mmHg 94%
12:00 0°C° 0.2 mm 4 m/s 751 mmHg 94%
13:00 0°C° 0.1 mm 4 m/s 751 mmHg 93%
14:00 +1°C° 0.1 mm 3 m/s 751 mmHg 92%
15:00 +2°C° 0.1 mm 3 m/s 752 mmHg 90%
16:00 +1°C° 0 mm 3 m/s 752 mmHg 88%
17:00 0°C° 0 mm 4 m/s 753 mmHg 86%
18:00 0°C° 0 mm 4 m/s 753 mmHg 84%
19:00 -1°C° 0.1 mm 4 m/s 754 mmHg 87%
20:00 -1°C° 0.1 mm 4 m/s 754 mmHg 91%
21:00 0°C° 0.1 mm 3 m/s 755 mmHg 94%
22:00 0°C° 0.3 mm 4 m/s 755 mmHg 93%
23:00 0°C° 0.3 mm 4 m/s 755 mmHg 92%

26 Janeiro, Terça-feira

Tempo Temperatura Precipitação Vento Pressão Humidade
00:00 0°C° 0.3 mm 5 m/s 755 mmHg 91%
01:00 0°C° 0.1 mm 5 m/s 755 mmHg 91%
02:00 0°C° 0.1 mm 5 m/s 756 mmHg 91%
03:00 0°C° 0.1 mm 4 m/s 756 mmHg 91%
04:00 0°C° 0 mm 4 m/s 756 mmHg 91%
05:00 -1°C° 0 mm 4 m/s 757 mmHg 91%
06:00 -1°C° 0 mm 4 m/s 757 mmHg 92%
07:00 -1°C° 0 mm 4 m/s 757 mmHg 90%
08:00 0°C° 0 mm 4 m/s 757 mmHg 89%
09:00 0°C° 0 mm 4 m/s 758 mmHg 88%
10:00 0°C° 0 mm 4 m/s 758 mmHg 85%
11:00 +1°C° 0 mm 4 m/s 757 mmHg 82%
12:00 +3°C° 0 mm 4 m/s 757 mmHg 79%
13:00 +3°C° 0 mm 4 m/s 757 mmHg 80%
14:00 +3°C° 0 mm 4 m/s 757 mmHg 81%
15:00 +3°C° 0 mm 4 m/s 756 mmHg 83%
16:00 +2°C° 0.5 mm 5 m/s 755 mmHg 86%
17:00 +1°C° 0.5 mm 6 m/s 755 mmHg 90%
18:00 0°C° 0.5 mm 7 m/s 754 mmHg 94%
19:00 +2°C° 1 mm 7 m/s 753 mmHg 92%
20:00 +3°C° 1 mm 7 m/s 752 mmHg 91%
21:00 +2°C° 1 mm 8 m/s 751 mmHg 90%
22:00 +4°C° 0.3 mm 7 m/s 751 mmHg 90%
23:00 +5°C° 0.3 mm 7 m/s 751 mmHg 91%

27 Janeiro, Quarta-feira

Tempo Temperatura Precipitação Vento Pressão Humidade
00:00 +5°C° 0.3 mm 7 m/s 750 mmHg 92%
01:00 +5°C° 0.1 mm 7 m/s 751 mmHg 90%
02:00 +5°C° 0.1 mm 7 m/s 752 mmHg 88%
03:00 +5°C° 0.1 mm 8 m/s 752 mmHg 86%
04:00 +4°C° 0 mm 7 m/s 753 mmHg 86%
05:00 +4°C° 0 mm 7 m/s 753 mmHg 87%
06:00 +4°C° 0 mm 6 m/s 754 mmHg 87%
07:00 +4°C° 0 mm 6 m/s 755 mmHg 87%
08:00 +4°C° 0 mm 6 m/s 756 mmHg 87%
09:00 +5°C° 0 mm 5 m/s 756 mmHg 87%
10:00 +6°C° 0 mm 5 m/s 757 mmHg 85%
11:00 +6°C° 0 mm 5 m/s 757 mmHg 83%
12:00 +6°C° 0 mm 5 m/s 757 mmHg 81%
13:00 +7°C° 0 mm 5 m/s 757 mmHg 81%
14:00 +7°C° 0 mm 4 m/s 757 mmHg 81%
15:00 +7°C° 0 mm 4 m/s 757 mmHg 81%
16:00 +6°C° 0 mm 4 m/s 757 mmHg 84%
17:00 +6°C° 0 mm 4 m/s 757 mmHg 88%
18:00 +5°C° 0 mm 4 m/s 757 mmHg 92%
19:00 +6°C° 0 mm 5 m/s 757 mmHg 91%
20:00 +6°C° 0 mm 5 m/s 757 mmHg 90%
21:00 +5°C° 0 mm 6 m/s 757 mmHg 89%
22:00 +5°C° 0.1 mm 7 m/s 756 mmHg 89%
23:00 +5°C° 0.1 mm 7 m/s 755 mmHg 89%

28 Janeiro, Quinta-feira

Tempo Temperatura Precipitação Vento Pressão Humidade
00:00 +5°C° 0.1 mm 8 m/s 754 mmHg 88%
01:00 +6°C° 1.7 mm 8 m/s 753 mmHg 89%
02:00 +6°C° 1.7 mm 8 m/s 752 mmHg 90%
03:00 +7°C° 1.7 mm 8 m/s 751 mmHg 91%
04:00 +7°C° 0.3 mm 8 m/s 750 mmHg 88%
05:00 +9°C° 0.3 mm 8 m/s 750 mmHg 86%
06:00 +9°C° 0.3 mm 8 m/s 749 mmHg 84%
07:00 +8°C° 0 mm 9 m/s 749 mmHg 82%
08:00 +8°C° 0 mm 9 m/s 749 mmHg 81%
09:00 +8°C° 0 mm 9 m/s 749 mmHg 79%
10:00 +7°C° 0.3 mm 9 m/s 749 mmHg 81%
11:00 +7°C° 0.3 mm 8 m/s 749 mmHg 83%
12:00 +7°C° 0.3 mm 8 m/s 749 mmHg 85%
13:00 +7°C° 0.2 mm 8 m/s 749 mmHg 81%
14:00 +7°C° 0.2 mm 8 m/s 749 mmHg 76%
15:00 +9°C° 0.2 mm 8 m/s 750 mmHg 72%
16:00 +8°C° 0 mm 7 m/s 750 mmHg 72%
17:00 +8°C° 0 mm 7 m/s 751 mmHg 73%
18:00 +7°C° 0 mm 6 m/s 752 mmHg 74%
Mostrar mais